sat.trackr.live / text

‹ back to catalog

EUTELSAT 172B

NORAD 42741 · 2017-029B

PAYLOAD ACTIVE UNKNOWN

§ Identity

Operator
Country
EUTE
Launch date
2017-06-01
Launch site
FRGUI
Launch vehicle
Mass (kg)
RCS (m²)

Purposes: comms

External: N2YO · Heavens-Above · Gunter

§ Orbital elements

Epoch: 2026-05-24T21:43:01.975872Z

Period
1,436.11 min
Inclination
0.0354°
Eccentricity
0.0000172
Mean motion
1.00270791 rev/d
Perigee alt
35,786.1 km
Apogee alt
35,787.6 km
Semi-major
42,165.0 km
B*
0.0000e+0
RAAN
145.4088°
Arg perigee
168.5082°
Mean anomaly
66.3392°
Rev number
3,350

§ Raw data

EUTELSAT 172B1 42741U 17029B   26144.90488398 -.00000009  00000+0  00000+0 0  99912 42741   0.0354 145.4088 0000172 168.5082  66.3392  1.00270791 33509

JSON: /api/v1/satellites/42741 · /tle

For live sub-satellite position, see the globe view (requires WebGL).

§ Visibility from observer

Set your observer location to see the next 7 days of passes ≥ 10°. The values pass through the URL so the page stays shareable.

No JS? Fill the form by hand. The geolocation button needs JavaScript.